Погода в Орше

Россия / Тверская область     56°54′39″N   36°13′37″E
темп.,
°C
ветер,
м/с
пор.,
м/с
влажн.,
%
обл.,
%
осадки,
мм/ч
давл.,
гПа
погр.,
м
21 апреля, ср
ср2100:00+4в3897100 0.9 1014870
03:00+3всв3897100 2.2 1011630
06:00+2св3998100 2.5 1006515
09:00+2св2499100 5.3 1004200
12:00+2зюз2399100 0.9 1003219
15:00+3зюз4791100 1.0 1005784
18:00+4юз4890100 0.1 1006660
21:00+4ююз3891100 0.1 1008288
22 апреля, чт
чт2200:00+4ююз41189100 0.0 1009423
03:00+3ю4119447 0.1 1010338
06:00+2ю41195100 0.0 1010327
09:00+5ю41291100 1.4 1011520
12:00+11ююз576725 0.0 10111166
15:00+13ююз585424 0.7 10111826
18:00+12ю596239 0.1 1011570
21:00+9ююв5128587 0.1 1012410
23 апреля, пт
пт2300:00+8ююв4129161 0.1 1011354
03:00+7ююв4129529 0.1 1011355
06:00+7ю51392100 0.0 1011602
09:00+9ю51085100 0.1 1011758
12:00+10ю61683100 1.6 10111760
15:00+5зюз3792100 3.8 1013440
18:00+6ююв3591100 3.9 1013323
21:00+5юв3595100 4.8 1013226
24 апреля, сб
сб2400:00+4вюв1395100 0.2 1011124
03:00+3с1297100 4.7 1009524
06:00+2сз2699100 5.3 1007370
09:00+2сз3799100 11.3 1007394
12:00+3зсз4998100 2.3 1007511
15:00+4зсз4893100 3.4 1006758
18:00+5сз2579100 0.2 1006753
21:00+3зюз2284100 0.4 100619
25 апреля, вс
вс2500:00+1зюз36895 0.0 1005120
03:00−1зюз39915 0.0 1005211
06:000юз399545 0.0 1005405
09:00+2юз5991100 0.3 1005805
12:00+5юз6871100 0.8 10051360
15:00+6зюз586498 1.6 10061587
18:00+6зюз36665 0.8 1006979
21:00+1ююз36875 0.9 1007111